星链-35863(STARLINK-35863)

导读 | 豆包AI

STARLINK-35863是美国于2025年12月17日发射的星链系列卫星,隶属于SpaceX公司的星链星座项目。该项目旨在构建全球卫星互联网星座,为全球多地提供高速低延迟互联网接入服务,这颗卫星的入轨进一步扩充了星链星座的组网规模,推动全球卫星互联网覆盖能力提升。

基本信息
目录编号:
67170
目录名称:
STARLINK-35863
国际标识:
2025-303H
轨道中心:
EARTH
卫星名称:
星链-35863
卫星全名:
星链-35863(STARLINK-35863)
卫星状态:
在轨 (已飞行87 天)
发射日期:
2025-12-17 UTC
国别 :
美国 (US)
星等 :
--
轨道信息
数据来源 国际轨道数据 AOE轨道数据
星历时间 2026-03-13T22:57:59+0800
12小时前
查看轨道信息
2026-03-13T05:00:00+0800
1天前
查看轨道信息
半长轴 6861.073km 6861.246km
偏心率 0.0001295 0.0001007
轨道倾角 42.998° 42.999°
近地点辐角 257.257° 213.243°
升交点赤经 288.768° 293.004°
平近点角 102.814° 345.135°
近地点 482.047km 482.418km
远地点 483.825km 483.8km
周期 94.264分钟 94.268分钟
每日圈数 15.276181 15.275602
详细信息
固有亮度:
5
最大亮度:
2.5
卫星平台:
Starlink V1.0
覆盖范围:
全球
运营商:
太空探索技术公司
运营商所在国:
美国
制造商(研发单位):
太空探索技术公司
制造商所在国:
美国
使用方式:
暂无
卫星简介
Starlink 计划是 SpaceX 推出的全球卫星互联网项目,通过发射低轨道卫星,为全球尤其是偏远地区提供高速、低延迟的互联网服务。自 2019 年起,Starlink 已部署数千颗卫星,旨在缩小全球数字鸿沟,推动互联网普及。该项目还为军事、航空等行业提供通信支持,带来广泛经济效益。
2D轨道图
3D轨道图
轨道高度分析图
轨道倾角分析图
轨道综合分析图
查看轨道综合分析图